Tracking 23610 objects as of 19-Sep-2021
HD Live streaming from Space Station
objects crossing your sky now

DMSP 5D-2 F13 DEB

Track DMSP 5D-2 F13 DEB now!
10-day predictions


NORAD ID: 42327
Int'l Code: 1995-015JV
Perigee: 824.5 km
Apogee: 833.1 km
Inclination: 98.8 °
Period: 101.3 minutes
Semi major axis: 7199 km
RCS: Unknown
Launch date: March 24, 1995
Source: United States (US)
Launch site: AIR FORCE WESTERN TEST RANGE (AFWTR)

Note: This is SATELLITE DEBRIS
aabbcc
Your satellite tracking list
Your tracking list is empty




NASA's NSSDC Master Catalog

Two Line Element Set (TLE):
1 42327U 95015JV  21260.97563676  .00000859  00000-0  41595-3 0  9997
2 42327  98.7745 272.6848 0005970  23.1047 337.0397 14.21092073306151
Source of the keplerian elements: AFSPC